Wind_Speed
36 36 37 37 37 37 37 38 39 39 39 40 41 41 41 41 41 41 41 42 42 43 44 45 45 45 45 45 45 45 45 46 47 47 46 46 47 46 46 47 47 48 48
35 36 36 36 36 36 37 37 38 38 38 39 40 40 40 40 41 41 42 42 42 43 44 44 44 44 45 44 44 45 45 46 47 46 46 46 46 46 46 46 47 47 47
35 35 35 35 35 36 36 37 37 37 37 38 39 39 39 39 40 41 41 42 43 43 44 44 44 44 44 44 44 44 45 45 45 45 45 45 45 45 45 46 46 47 47
33 34 34 34 34 34 34 34 35 35 36 38 38 38 39 39 39 40 40 41 42 42 43 44 45 45 45 45 44 44 44 44 44 44 44 44 44 45 45 45 45 46 46
32 32 33 32 32 32 32 32 33 34 35 37 37 38 38 38 38 39 40 41 42 42 43 44 45 45 44 44 43 42 42 42 42 42 43 43 43 43 44 44 45 45 45
31 31 32 31 30 30 30 31 33 34 35 36 37 37 37 37 37 38 39 39 40 41 41 42 42 42 42 42 41 41 40 40 40 41 41 42 42 43 43 43 44 44 43
30 30 30 30 30 30 31 32 32 33 35 36 37 37 37 37 37 38 39 39 40 40 40 40 40 40 40 39 39 39 40 40 40 40 40 40 41 42 43 43 43 43 42
30 30 30 30 30 30 31 32 32 34 35 36 37 37 37 37 38 38 38 39 39 39 38 38 38 37 37 37 37 37 37 39 39 39 38 38 38 39 40 41 41 41 40
30 30 30 31 30 31 32 32 33 34 34 35 36 36 36 37 37 38 38 38 37 36 36 35 36 36 35 36 35 36 36 36 37 37 37 36 36 37 38 40 40 39 39
30 31 30 30 31 31 32 33 33 34 34 34 35 36 36 36 36 37 37 37 36 35 35 35 35 35 34 34 34 34 34 34 35 35 36 36 36 37 37 38 38 37 36
30 31 31 31 31 31 31 32 32 32 33 33 33 34 35 35 35 35 35 35 34 34 34 34 34 35 34 34 34 34 34 34 34 34 35 35 35 36 36 36 36 36 35
30 31 30 31 31 31 31 32 32 33 32 32 32 32 32 32 32 32 33 33 33 33 33 33 33 34 34 34 34 34 34 34 34 33 33 33 33 33 33 33 34 34 33
31 30 30 30 30 31 31 31 31 32 31 31 32 31 31 31 31 31 32 32 32 32 32 32 32 33 33 33 33 32 33 33 32 32 32 32 32 32 32 31 30 30 30
30 30 30 30 31 30 30 30 31 31 31 31 31 31 31 31 30 30 30 31 30 30 30 30 30 31 31 31 31 31 31 31 31 30 30 30 30 29 30 29 29 29 28
30 30 30 30 30 30 29 29 29 30 30 30 30 30 29 29 29 29 29 29 29 29 29 30 29 29 30 29 29 30 30 29 29 29 29 29 29 29 28 28 27 27 26
29 29 29 29 29 29 29 29 29 29 28 28 28 29 28 28 28 28 28 27 28 28 28 28 28 28 28 28 28 28 28 28 27 27 27 27 27 27 26 26 26 25 24
28 28 28 28 27 27 27 27 26 26 26 26 27 27 27 27 27 27 27 27 27 27 27 27 27 27 27 27 27 26 26 26 26 26 26 26 25 25 25 25 24 24 23
28 27 27 26 25 25 25 25 25 25 25 25 25 25 25 25 25 25 25 26 26 26 26 26 25 25 25 25 25 24 24 25 25 25 24 24 23 23 23 22 22 21 21
26 26 25 24 24 24 24 24 23 23 24 24 23 23 23 22 23 24 24 24 24 24 24 24 24 23 23 23 23 23 23 22 22 22 21 21 21 21 21 21 20 20 19
25 25 24 24 23 23 23 23 22 22 22 22 22 21 21 21 22 22 22 22 22 22 22 22 22 22 22 22 21 21 20 19 19 19 20 19 19 19 19 19 19 18 18
23 23 24 24 24 23 22 22 21 21 21 20 21 20 20 20 20 20 20 20 20 20 20 20 20 20 20 19 19 18 18 17 17 17 17 17 17 17 17 17 17 17 16
22 22 22 22 22 21 21 21 20 20 20 20 20 20 19 19 19 19 18 18 18 18 18 18 18 18 18 17 17 17 17 16 16 16 16 16 16 16 16 16 15 15 15
21 21 21 21 20 20 20 20 19 19 19 19 19 18 18 17 17 17 17 17 17 17 17 17 17 17 17 17 16 16 15 15 15 16 16 16 15 15 15 14 14 14 14
20 20 20 20 20 19 19 19 18 18 18 18 17 17 16 16 16 16 16 16 16 16 16 16 16 16 16 16 15 15 15 15 15 15 15 14 14 14 14 13 13 13 13
20 19 19 19 18 17 17 16 16 16 16 16 15 16 16 16 16 16 15 15 15 15 15 15 15 15 16 15 15 15 15 15 15 14 14 13 13 13 12 11 11 11 11
18 18 17 17 16 16 15 15 15 15 15 15 15 15 15 15 15 14 14 14 14 15 15 15 15 15 15 15 14 14 14 14 14 13 13 12 12 11 10 10 10 10 9
Wind_Direction
267 266 265 266 266 266 265 264 263 264 265 266 267 268 268 269 270 271 271 272 275 277 278 278 279 280 279 279 277 277 278 278 276 276 275 275 275 276 276 276 276 277 276
267 266 266 266 266 266 267 266 265 265 266 267 267 267 269 270 270 271 273 273 275 277 278 277 278 280 280 279 279 278 278 278 276 276 275 275 275 276 276 277 276 277 277
267 266 266 267 267 267 267 267 267 267 268 267 267 268 269 269 270 272 273 274 275 276 277 277 279 280 280 279 280 279 278 277 276 275 275 275 276 276 276 277 276 277 277
267 266 267 268 268 269 268 268 269 269 269 268 267 268 269 270 271 273 273 274 275 276 277 278 279 280 281 280 279 278 278 277 276 276 276 276 276 275 275 277 276 276 276
267 267 267 268 269 268 267 268 269 270 271 271 270 270 271 272 273 274 275 276 276 277 279 280 280 280 281 279 279 278 278 278 277 277 277 277 276 275 276 276 277 277 277
267 267 268 268 268 267 267 268 270 271 272 271 270 271 273 274 275 275 276 277 278 279 280 280 281 281 280 279 278 277 278 279 279 279 279 278 276 276 276 277 278 277 277
267 267 268 269 269 270 269 269 271 273 273 271 271 272 273 275 277 278 278 279 279 280 280 279 280 280 280 280 280 279 278 278 279 280 281 281 278 277 277 277 278 278 277
267 267 267 270 271 271 272 273 273 274 274 274 273 273 274 275 276 279 280 281 281 281 281 281 281 280 280 280 280 280 279 279 279 279 280 281 279 277 277 278 278 279 278
266 267 269 270 270 271 272 273 274 275 276 275 273 273 274 276 277 279 281 282 281 281 280 280 280 280 281 281 280 280 280 280 279 280 280 280 279 278 278 278 279 280 279
267 268 269 270 270 272 273 274 275 278 277 275 273 274 276 277 278 280 281 282 281 280 280 279 280 281 281 280 281 281 281 281 281 281 280 279 280 280 279 278 280 280 279
268 269 270 270 270 273 274 274 276 278 278 277 276 276 277 276 279 280 281 280 280 279 279 280 280 281 281 281 282 282 282 281 282 282 281 280 280 280 279 279 280 280 279
269 270 270 271 272 272 273 275 276 278 279 278 277 277 277 277 279 280 280 280 280 280 280 281 281 281 282 282 283 283 282 282 282 282 282 281 280 281 280 279 280 280 280
268 270 270 270 272 272 273 274 276 277 279 278 277 277 277 279 279 279 280 280 281 282 283 284 283 283 284 284 284 284 283 283 283 283 282 281 280 281 280 279 279 280 280
269 270 270 270 270 272 273 274 275 278 279 278 277 278 279 280 280 280 281 282 283 283 285 286 286 286 286 286 286 285 284 284 283 283 283 282 281 280 280 280 279 280 281
270 270 270 271 271 273 274 275 276 278 279 278 277 279 280 280 280 282 283 283 283 284 285 286 286 286 287 288 288 286 285 285 284 283 283 282 281 281 281 280 279 281 281
269 270 272 272 271 272 272 275 277 280 279 279 279 280 281 280 281 283 284 284 284 284 284 286 287 287 287 288 287 286 285 284 284 284 283 282 282 282 282 281 280 280 281
269 271 272 272 271 271 272 275 278 280 281 281 280 281 281 281 282 283 284 285 285 285 285 286 287 287 288 289 288 286 285 284 284 285 285 284 283 283 282 281 280 279 279
269 270 271 270 269 272 273 275 277 280 282 283 282 281 281 281 282 283 284 286 286 287 288 288 288 288 288 289 289 287 286 285 285 285 285 284 284 284 283 281 279 278 278
269 269 268 268 270 272 273 276 278 281 283 283 280 280 280 281 282 284 286 286 287 288 289 290 290 289 289 290 291 290 289 288 285 285 285 285 284 283 283 281 279 277 277
267 266 265 267 270 272 275 277 279 281 284 282 280 279 280 280 282 285 287 288 289 290 290 291 291 291 291 293 293 293 291 289 288 286 285 284 284 284 284 282 278 276 278
266 266 266 268 271 272 274 276 278 280 282 282 280 280 280 281 284 286 288 290 291 292 293 293 294 294 294 294 294 294 293 292 292 290 288 287 286 285 285 283 279 275 277
266 266 267 268 269 270 272 274 277 280 281 282 281 279 281 283 285 287 289 291 294 296 296 296 297 298 297 294 293 294 294 294 294 294 291 289 288 286 284 283 278 274 275
264 265 267 269 270 272 273 275 277 280 281 282 279 279 281 283 285 286 288 292 296 297 297 297 297 298 297 295 295 295 294 293 294 296 293 291 290 288 285 282 277 273 275
265 266 268 269 269 271 272 274 277 279 280 280 279 277 278 281 284 287 290 293 296 297 297 296 296 298 299 297 294 293 293 293 294 295 294 293 291 289 288 283 278 273 270
264 265 267 267 268 270 271 273 275 277 277 278 277 276 276 279 282 285 288 292 295 297 297 297 297 298 298 297 294 291 293 293 293 295 294 292 291 291 288 284 279 273 267
262 263 264 264 267 269 269 271 274 274 274 276 278 278 277 277 279 281 286 290 294 296 296 297 298 300 299 298 295 293 292 291 291 295 295 293 291 289 287 283 278 272 265
Height
5622 5622 5622 5622 5622 5623 5624 5625 5626 5627 5629 5630 5631 5631 5632 5632 5633 5633 5633 5634 5633 5632 5630 5629 5627 5625 5623 5622 5621 5621 5620 5619 5619 5620 5619 5618 5617 5615 5615 5614 5613 5612 5612
5612 5613 5613 5613 5613 5614 5615 5616 5617 5618 5619 5619 5620 5621 5621 5622 5622 5622 5622 5622 5621 5620 5619 5618 5616 5614 5612 5611 5610 5609 5608 5607 5606 5606 5606 5605 5604 5603 5602 5601 5600 5599 5599
5603 5603 5604 5604 5605 5605 5606 5606 5607 5608 5609 5609 5610 5611 5611 5611 5611 5611 5611 5611 5610 5609 5608 5606 5605 5603 5601 5599 5598 5597 5596 5594 5593 5593 5593 5592 5591 5590 5589 5588 5588 5587 5586
5594 5595 5595 5595 5595 5596 5597 5597 5598 5598 5599 5600 5600 5601 5601 5601 5601 5601 5601 5600 5599 5598 5596 5595 5594 5592 5590 5588 5587 5585 5584 5582 5581 5580 5580 5580 5579 5578 5577 5576 5575 5574 5574
5586 5586 5587 5587 5587 5587 5588 5588 5589 5589 5590 5590 5591 5591 5591 5591 5591 5591 5590 5590 5589 5587 5585 5584 5582 5580 5578 5577 5575 5574 5572 5571 5570 5569 5568 5568 5567 5565 5565 5564 5563 5562 5562
5578 5578 5578 5579 5579 5579 5580 5580 5581 5581 5581 5581 5581 5581 5581 5581 5581 5580 5580 5579 5578 5576 5574 5573 5571 5569 5567 5565 5564 5562 5561 5560 5559 5558 5557 5556 5555 5554 5553 5552 5551 5551 5551
5570 5571 5571 5571 5572 5572 5572 5572 5572 5573 5573 5572 5572 5572 5571 5571 5571 5570 5569 5568 5567 5565 5564 5562 5560 5558 5556 5554 5553 5552 5551 5549 5548 5547 5546 5545 5543 5543 5541 5541 5540 5539 5539
5563 5563 5563 5564 5564 5564 5564 5564 5564 5564 5564 5563 5563 5562 5562 5562 5561 5560 5558 5557 5556 5554 5553 5551 5549 5547 5546 5544 5543 5541 5540 5538 5537 5536 5535 5534 5532 5531 5530 5529 5528 5528 5528
5555 5555 5556 5556 5556 5556 5556 5556 5556 5555 5555 5554 5553 5553 5553 5552 5551 5549 5548 5547 5546 5544 5542 5541 5539 5538 5536 5534 5533 5532 5530 5529 5527 5525 5525 5524 5522 5521 5520 5519 5518 5517 5517
5547 5547 5547 5547 5547 5548 5548 5548 5547 5546 5546 5545 5544 5543 5543 5542 5541 5539 5538 5537 5536 5534 5533 5531 5530 5528 5526 5524 5523 5522 5521 5519 5518 5516 5515 5514 5512 5511 5510 5509 5508 5507 5506
5539 5539 5539 5539 5539 5539 5539 5539 5538 5538 5537 5536 5535 5535 5534 5533 5531 5530 5528 5527 5526 5524 5523 5522 5520 5518 5517 5515 5514 5513 5511 5510 5508 5507 5506 5504 5503 5502 5501 5500 5498 5497 5497
5531 5531 5531 5531 5531 5531 5531 5530 5530 5529 5528 5527 5526 5526 5524 5523 5522 5520 5519 5518 5516 5515 5514 5513 5511 5509 5508 5506 5504 5503 5501 5500 5499 5498 5497 5495 5494 5493 5492 5490 5489 5488 5488
5523 5522 5522 5522 5522 5522 5522 5522 5521 5520 5519 5518 5518 5517 5516 5514 5513 5512 5510 5509 5507 5506 5505 5503 5502 5500 5498 5497 5495 5494 5492 5491 5490 5489 5488 5486 5485 5484 5482 5482 5481 5480 5479
5514 5514 5514 5514 5514 5513 5513 5513 5512 5512 5511 5510 5509 5508 5507 5506 5504 5503 5502 5500 5499 5498 5496 5494 5493 5491 5490 5488 5487 5485 5483 5482 5481 5480 5479 5477 5476 5475 5474 5474 5473 5472 5472
5505 5505 5505 5505 5505 5505 5505 5504 5504 5503 5502 5501 5500 5500 5499 5497 5496 5495 5493 5492 5491 5489 5488 5486 5485 5483 5482 5480 5478 5477 5475 5474 5472 5471 5470 5469 5468 5467 5466 5466 5465 5465 5464
5497 5497 5497 5497 5497 5497 5497 5496 5495 5495 5494 5493 5492 5491 5490 5489 5488 5487 5485 5484 5482 5481 5480 5478 5477 5475 5474 5472 5470 5468 5467 5466 5464 5463 5462 5461 5460 5459 5459 5458 5458 5457 5457
5489 5489 5489 5489 5489 5489 5489 5488 5487 5486 5485 5485 5484 5483 5482 5481 5480 5479 5478 5476 5475 5473 5472 5470 5469 5467 5466 5464 5462 5461 5459 5458 5457 5456 5455 5454 5453 5452 5451 5451 5451 5450 5450
5482 5482 5482 5482 5482 5481 5481 5481 5480 5479 5478 5477 5476 5475 5474 5473 5472 5471 5470 5469 5467 5465 5464 5462 5461 5459 5458 5457 5455 5453 5452 5451 5450 5449 5448 5447 5446 5445 5444 5444 5444 5443 5443
5474 5474 5474 5474 5474 5474 5474 5473 5473 5472 5471 5470 5469 5468 5467 5466 5465 5464 5463 5461 5460 5458 5457 5455 5454 5452 5451 5450 5448 5447 5445 5444 5443 5442 5441 5440 5439 5439 5438 5437 5437 5437 5437
5467 5467 5467 5468 5468 5467 5467 5466 5466 5465 5464 5463 5462 5461 5460 5460 5459 5458 5456 5455 5453 5452 5450 5449 5448 5446 5445 5443 5442 5440 5439 5438 5437 5436 5435 5434 5433 5433 5432 5432 5431 5431 5431
5460 5460 5460 5461 5461 5460 5460 5460 5459 5458 5458 5457 5456 5455 5454 5454 5453 5452 5450 5449 5448 5446 5445 5443 5442 5440 5439 5438 5436 5435 5434 5433 5432 5431 5430 5429 5428 5427 5427 5426 5426 5426 5426
5453 5453 5453 5454 5454 5454 5454 5454 5453 5452 5451 5451 5450 5449 5448 5448 5447 5446 5445 5444 5442 5441 5439 5438 5437 5435 5434 5433 5432 5431 5429 5428 5427 5426 5425 5424 5423 5423 5422 5422 5421 5421 5421
5446 5446 5447 5447 5447 5447 5447 5447 5447 5446 5445 5445 5444 5444 5443 5442 5442 5441 5440 5439 5437 5436 5434 5433 5432 5431 5429 5428 5427 5426 5425 5424 5423 5422 5421 5420 5419 5418 5418 5417 5417 5417 5417
5440 5440 5440 5441 5441 5441 5441 5441 5441 5440 5440 5439 5439 5438 5438 5437 5437 5436 5435 5434 5432 5431 5430 5428 5427 5426 5425 5424 5422 5421 5421 5420 5419 5418 5417 5416 5415 5414 5414 5413 5413 5413 5413
5433 5434 5434 5435 5435 5435 5435 5435 5435 5435 5434 5434 5434 5434 5433 5433 5432 5431 5430 5429 5428 5427 5426 5424 5423 5422 5421 5419 5418 5417 5417 5416 5415 5414 5413 5412 5411 5410 5410 5410 5409 5409 5410
5428 5428 5429 5429 5430 5430 5430 5430 5430 5430 5430 5430 5429 5429 5429 5428 5428 5427 5426 5425 5424 5423 5422 5420 5419 5418 5416 5415 5414 5413 5412 5411 5411 5410 5409 5408 5407 5407 5407 5406 5406 5406 5407